Theta_e
321 321 316 317 317 317 316 316 316 316 318 318 319 319 319 320 319 319 319 316 316 317 317 317 318 319 318 317 315 316 316 316 320 323 324 324 323 321 316 315 314 310 309 307 307 306 304
321 321 317 317 317 317 317 316 316 316 318 318 319 319 319 320 319 319 320 315 316 316 317 317 316 317 316 313 314 315 316 318 319 320 322 324 321 321 318 315 315 313 308 306 306 305 304
320 321 318 317 317 317 317 316 316 316 318 319 319 319 320 320 320 321 316 316 316 316 317 317 317 317 314 312 313 314 315 316 317 316 317 318 323 322 317 314 314 310 309 306 305 304 303
319 321 319 316 317 317 317 316 316 316 318 319 320 320 320 320 321 317 317 316 315 316 316 316 316 315 313 312 313 315 317 315 316 315 315 315 316 317 315 314 313 311 310 310 307 306 304
319 321 319 316 317 317 317 316 316 316 318 319 319 318 317 319 318 317 316 315 316 315 316 316 316 315 313 313 315 316 316 315 316 315 315 315 314 310 311 311 310 307 309 311 309 307 305
320 321 318 316 317 317 317 317 316 316 317 318 319 319 318 318 317 317 316 318 313 316 317 315 314 315 312 312 313 316 316 316 316 316 315 313 310 305 304 305 308 308 309 309 308 306 301
319 320 317 317 317 317 317 316 316 316 316 318 319 319 318 318 316 316 320 321 315 314 313 312 312 312 312 313 314 316 317 316 316 314 309 309 307 305 306 306 306 307 307 306 306 304 302
317 319 317 317 317 317 316 316 316 317 316 318 318 319 318 318 316 317 318 319 315 314 313 313 313 313 313 313 313 314 315 315 310 309 310 306 305 305 307 305 306 307 306 304 304 304 301
316 318 316 317 317 316 316 316 316 317 316 317 319 318 317 316 318 316 318 316 317 318 316 315 313 313 312 312 310 311 313 313 309 306 304 304 304 306 307 304 304 305 304 304 303 303 301
315 317 316 317 317 316 316 316 316 316 316 316 317 319 318 318 318 316 316 317 317 317 312 314 314 314 312 313 312 310 312 311 309 308 306 304 304 304 305 305 303 305 305 303 304 303 305
316 315 316 317 316 315 315 315 315 316 316 316 317 318 318 318 319 318 317 319 318 319 318 316 313 314 313 312 311 310 310 310 306 305 309 305 303 302 303 303 303 304 302 302 304 303 305
318 314 316 317 316 315 315 315 315 315 316 316 316 318 318 319 319 318 319 317 319 320 316 315 314 313 313 312 312 311 308 309 307 306 304 304 304 302 302 302 303 301 301 303 305 304 303
320 313 315 317 316 315 316 316 315 314 316 317 316 317 317 317 318 318 318 317 318 316 316 315 314 312 311 311 310 307 304 302 301 309 305 305 303 302 302 300 301 299 298 301 304 302 301
322 315 315 316 316 316 317 316 315 314 315 316 316 317 317 317 318 318 317 316 320 317 316 315 314 312 312 312 309 305 305 303 302 302 301 304 308 301 302 300 299 299 297 298 302 301 299
324 318 314 316 316 317 318 316 314 314 314 315 316 316 317 316 316 316 321 318 316 317 315 314 312 313 313 312 309 305 303 303 303 300 303 303 304 302 302 301 298 298 296 297 298 298 297
325 321 314 316 317 317 319 317 313 314 314 315 316 317 316 316 316 319 315 316 313 313 312 314 314 313 314 311 311 308 306 303 303 303 303 302 303 302 302 301 299 297 297 296 295 294 296
324 323 315 316 317 317 319 318 313 315 315 317 318 319 316 315 316 320 314 312 311 311 311 311 312 312 312 312 309 306 306 304 303 304 303 300 301 303 300 297 297 295 295 294 294 294 292
323 324 319 315 317 317 319 319 314 315 313 316 317 315 316 317 317 309 310 311 310 309 309 310 309 310 311 310 309 307 306 304 303 304 303 301 298 298 299 298 297 296 295 294 293 292 292
322 324 322 314 316 318 318 318 317 313 314 316 318 316 316 319 313 306 309 307 308 309 307 309 309 309 309 309 310 306 304 303 302 299 299 301 299 301 301 300 298 297 296 294 292 290 291
322 323 324 316 316 318 318 318 318 313 313 316 317 312 317 317 313 308 307 307 306 307 307 307 307 309 308 308 306 305 304 304 302 300 303 301 297 300 302 302 297 298 297 296 292 288 288
323 322 324 321 315 317 319 318 317 316 312 315 319 315 314 311 310 308 308 306 305 306 306 307 307 308 307 307 308 306 303 302 302 301 300 300 299 299 298 298 298 298 297 296 289 293 289
323 322 324 323 315 316 318 318 316 318 312 315 316 316 315 312 310 309 308 306 307 305 305 307 306 304 307 307 308 306 303 302 303 300 299 298 299 299 299 298 297 297 296 295 295 294 293
323 323 323 324 318 315 317 318 316 318 312 313 316 314 314 309 311 308 307 306 306 304 304 304 304 300 300 300 301 301 302 301 300 299 297 297 297 297 302 298 297 298 297 296 294 294 293
322 323 323 324 322 315 316 318 317 317 313 314 313 315 313 306 309 309 308 306 304 304 303 302 304 301 299 300 299 299 299 298 298 297 298 297 296 294 296 298 302 299 295 295 294 294 293
317 322 323 323 324 316 315 317 318 316 315 315 313 315 315 303 305 305 304 301 301 301 299 300 301 300 300 302 298 302 301 302 299 296 295 297 297 293 297 297 298 296 295 293 292 293 294
316 320 322 322 324 319 315 316 318 316 316 314 313 316 313 309 305 306 303 303 299 296 297 299 299 300 302 303 300 304 307 304 304 300 297 296 294 296 290 295 301 299 294 294 294 294 294
312 316 321 322 323 323 315 315 317 317 316 315 312 314 312 310 306 305 305 303 303 299 295 299 299 300 302 299 301 301 301 301 304 303 301 293 290 294 296 292 297 296 294 295 292 291 294
307 315 316 321 322 323 317 315 316 318 315 316 315 312 313 310 305 305 306 306 304 302 297 298 299 298 299 304 300 299 300 297 300 300 299 299 296 294 290 291 302 295 294 293 292 294 294
304 309 315 320 322 323 321 315 315 317 316 316 314 314 311 311 304 305 306 306 307 306 304 300 304 301 304 301 297 295 299 294 298 303 295 296 298 299 298 298 296 295 295 295 294 293 294
Wind_Speed
5 4 4 4 6 6 7 7 7 7 7 7 8 7 9 11 12 10 7 9 9 10 11 10 5 2 4 9 9 13 12 10 8 6 10 14 10 7 6 10 17 9 7 13 22 25 24
3 3 3 4 5 5 6 6 6 6 6 7 8 8 10 11 10 8 7 9 10 11 11 10 11 7 5 10 12 14 10 11 13 13 11 11 11 15 11 5 5 13 20 23 17 16 14
2 1 3 3 5 5 5 5 5 5 5 7 8 10 11 11 10 7 8 7 9 8 7 7 7 2 21 12 13 9 8 14 16 16 18 16 7 4 8 12 16 28 8 9 13 10 8
3 1 2 3 4 5 4 4 4 4 3 7 9 9 9 8 8 10 7 6 6 7 6 3 4 5 7 15 13 7 5 10 15 15 15 13 7 18 9 23 9 5 5 3 8 11 12
3 2 2 3 4 5 3 3 2 2 3 6 8 7 8 8 10 7 8 10 4 8 5 2 7 4 4 10 18 16 9 8 10 10 10 3 15 17 7 4 3 4 2 3 3 7 5
2 2 2 3 4 5 3 2 1 1 3 6 8 7 7 8 7 7 10 6 19 7 3 5 6 3 12 11 19 12 15 7 4 4 4 12 10 5 5 7 2 4 2 3 4 2 9
4 3 3 4 4 5 4 2 1 1 3 6 8 7 7 9 10 6 2 3 4 10 27 15 11 9 17 4 14 15 6 9 8 10 5 11 11 6 5 3 6 3 3 4 1 5 6
5 4 4 4 4 5 5 3 1 2 3 7 9 7 6 9 6 3 2 3 8 10 13 13 19 14 16 15 6 19 15 8 13 5 2 7 7 8 5 10 5 3 4 4 2 7 7
5 5 4 4 3 5 5 3 2 3 4 6 9 9 7 9 2 2 4 15 11 7 6 6 11 12 8 13 15 22 15 6 9 10 11 8 5 10 5 6 10 4 6 3 6 6 8
6 6 5 5 3 4 4 4 3 3 4 6 8 10 9 7 5 8 12 9 4 1 5 9 9 8 11 3 7 18 14 5 6 5 5 7 9 5 4 4 5 4 3 8 6 6 4
6 6 5 5 3 4 4 4 3 3 5 7 8 10 10 9 7 7 7 6 4 3 4 6 5 3 13 7 1 24 14 21 6 5 3 1 7 8 5 5 4 7 13 3 4 5 4
6 6 6 6 3 3 4 4 4 4 5 7 9 10 11 9 7 7 5 3 3 5 2 2 4 5 4 14 6 5 17 9 7 7 11 3 4 4 3 6 3 15 5 6 4 3 2
6 6 7 6 4 3 3 3 4 4 6 7 9 10 10 10 5 5 5 2 5 5 2 0 2 3 4 5 5 8 5 10 5 3 6 1 3 5 7 6 8 10 6 4 4 5 4
7 7 7 7 5 3 3 3 4 4 6 8 9 8 8 8 7 6 6 4 5 3 1 2 2 3 4 2 4 8 3 5 5 4 4 4 4 8 12 4 3 5 4 4 4 3 5
9 7 8 8 6 4 3 3 4 4 7 8 9 7 6 6 8 8 4 4 6 3 1 5 3 3 3 3 4 5 4 2 2 5 4 2 3 2 4 4 3 5 5 1 1 2 2
10 8 8 9 7 5 2 2 4 6 7 8 9 7 5 9 7 5 4 4 3 1 1 1 3 0 3 5 3 4 2 2 4 3 3 0 4 3 4 5 9 6 2 2 4 4 5
12 10 9 10 9 6 3 1 4 8 7 7 8 4 4 7 6 2 4 4 3 2 2 1 3 3 3 3 3 2 1 1 3 5 3 1 2 2 4 5 3 6 4 5 5 3 3
14 12 10 11 11 8 5 2 3 9 7 8 5 3 7 7 3 4 3 4 5 3 3 2 4 3 3 3 3 2 2 1 5 3 2 2 4 3 1 1 6 3 3 3 4 5 1
16 14 11 12 12 10 6 4 3 8 8 5 4 4 6 4 4 1 2 3 3 2 2 2 2 2 3 3 4 2 2 1 5 3 1 1 3 3 1 3 1 4 2 4 4 3 3
16 15 14 13 14 12 9 6 4 7 10 5 4 2 3 3 6 8 5 3 3 3 3 4 4 4 4 3 5 5 2 1 1 2 1 0 3 4 5 4 3 2 3 2 4 3 3
20 18 15 14 15 15 12 7 6 5 11 6 3 2 4 2 1 8 5 4 4 3 2 2 3 1 5 4 2 3 2 0 1 1 2 3 3 2 1 2 2 2 3 5 4 4 4
20 18 17 16 15 16 13 10 8 7 11 6 3 5 5 4 11 10 2 4 5 3 2 1 6 2 2 5 3 7 6 4 3 2 2 3 2 2 1 3 3 3 4 6 4 3 5
21 19 19 17 16 17 16 12 9 8 11 5 4 6 4 1 3 4 4 7 7 12 4 2 15 7 6 2 12 14 9 10 6 4 2 2 3 3 0 2 1 5 4 2 1 1 4
18 23 21 19 17 18 18 15 12 11 12 8 8 6 4 1 2 2 6 5 7 2 8 6 6 5 11 23 24 20 20 18 16 13 4 4 3 2 2 2 2 1 2 2 2 2 1
7 23 24 22 20 19 19 17 14 13 13 10 10 6 4 2 8 7 10 15 16 13 8 7 4 12 27 6 4 4 4 4 4 5 7 4 4 3 3 2 5 1 3 4 4 4 2
16 16 25 25 22 20 20 20 17 15 14 13 10 8 4 15 5 10 9 12 5 4 4 5 17 32 8 4 3 4 4 4 1 0 4 6 7 4 3 3 4 2 4 5 7 3 3
26 12 23 27 25 22 21 22 19 17 15 16 12 10 5 6 11 15 5 7 8 8 5 7 11 9 5 2 2 3 3 2 2 4 3 3 3 4 2 2 6 3 10 9 4 4 4
19 25 13 27 26 23 22 23 22 19 16 16 18 14 8 4 15 12 9 11 12 11 5 16 8 4 2 2 3 4 3 5 1 2 4 5 5 3 3 3 4 13 8 5 5 6 3
17 23 21 22 28 24 24 24 24 21 18 17 16 17 14 5 9 12 11 13 12 13 10 29 1 8 13 4 0 4 2 2 3 2 1 1 6 4 7 4 2 20 3 8 6 7 4
Wind_Direction
19 359 2 3 18 21 34 35 29 44 53 70 79 98 115 129 133 132 101 88 77 102 93 82 74 88 65 70 22 12 24 29 58 49 63 85 96 88 100 116 77 89 107 85 111 106 102
15 348 343 350 3 10 31 33 29 47 64 82 93 107 115 126 126 124 105 90 95 115 109 75 62 65 75 66 21 11 32 51 68 59 66 73 91 97 105 69 74 126 118 120 113 111 120
333 339 321 330 350 354 24 31 31 51 76 97 109 115 115 120 119 111 114 78 97 128 117 72 48 44 55 48 22 17 50 65 70 70 67 69 107 120 107 91 110 119 102 89 138 135 129
298 297 298 308 337 339 8 23 38 57 102 116 123 121 119 123 116 110 102 85 103 124 143 74 34 61 74 34 27 59 72 86 91 85 53 68 91 83 53 116 114 91 118 144 210 174 172
296 263 285 290 325 328 345 7 42 67 137 138 138 129 119 123 129 116 114 82 95 116 134 82 49 78 48 20 36 36 31 109 94 71 90 66 58 55 57 65 56 19 213 123 112 194 101
286 259 265 274 314 321 319 340 30 109 159 158 155 144 129 129 132 133 131 74 62 175 126 67 29 60 24 5 20 35 49 104 83 77 61 46 60 67 20 40 290 272 16 63 95 122 59
275 264 261 264 303 312 305 306 328 199 173 174 171 159 141 142 144 133 111 137 113 66 62 73 67 72 31 35 36 37 44 63 82 62 67 34 55 26 15 333 252 227 116 60 322 149 93
272 265 256 257 296 300 297 296 285 220 186 184 183 175 157 161 163 191 24 109 116 120 83 60 56 53 45 41 44 33 45 65 42 61 40 42 39 324 208 12 8 47 119 33 354 113 93
266 260 241 250 290 290 293 290 270 217 202 189 189 184 156 154 138 50 139 122 112 107 84 36 30 27 17 32 40 10 24 77 73 58 53 90 299 310 22 13 14 353 115 153 208 99 52
263 256 232 243 278 286 287 285 266 214 208 190 192 194 178 168 150 119 123 126 125 137 79 332 357 23 7 50 56 19 33 33 51 140 94 73 353 9 4 18 19 316 160 304 217 150 202
264 258 233 232 262 283 282 280 262 213 208 189 191 191 184 178 167 150 143 129 31 158 68 324 4 39 40 75 15 19 36 60 68 17 113 339 355 5 6 328 311 259 318 269 158 147 112
260 253 240 224 244 274 279 279 258 211 205 188 188 189 190 182 180 177 177 201 355 48 117 9 11 17 38 32 37 352 36 66 72 62 44 92 41 44 273 301 314 321 7 34 55 90 56
254 251 240 225 226 255 275 282 247 210 202 188 186 188 195 203 208 208 190 182 48 92 313 53 46 42 79 17 37 29 43 36 38 35 25 86 1 327 10 352 354 7 37 358 354 5 233
244 245 235 225 225 226 266 287 228 201 191 185 185 187 199 208 199 180 166 60 82 162 189 215 126 85 77 15 35 14 53 34 24 31 66 25 9 8 346 45 297 0 64 109 273 293 295
239 240 231 217 226 209 252 289 215 179 177 172 178 180 182 186 169 162 166 65 183 187 146 146 70 93 22 22 108 78 55 16 344 20 94 57 37 325 7 12 16 333 32 273 87 353 11
234 238 228 216 217 213 227 287 206 178 165 165 165 158 155 160 154 161 83 150 161 110 80 122 134 197 130 345 71 64 19 341 323 35 357 235 96 356 341 11 29 81 317 9 17 32 317
228 239 227 220 211 213 214 253 202 180 168 170 158 145 156 159 155 104 123 172 140 134 127 101 147 105 92 120 80 74 344 49 351 322 75 36 87 321 39 18 317 351 14 31 108 97 180
227 233 230 219 213 208 211 223 199 186 170 161 169 100 149 154 72 54 112 130 129 130 89 86 95 91 105 85 84 121 171 254 355 329 58 354 114 76 63 9 86 71 91 99 109 282 120
225 230 232 219 214 210 208 215 200 191 184 172 144 117 139 172 132 78 104 65 82 121 56 95 101 77 72 110 103 127 156 190 6 49 146 320 30 81 325 326 37 71 45 95 97 75 219
224 229 230 222 213 210 209 212 206 193 186 177 174 81 141 118 110 131 137 139 109 75 95 98 116 108 96 75 31 154 151 232 15 63 52 18 81 137 183 215 149 164 172 122 126 105 212
223 221 227 229 214 207 210 211 208 194 190 177 180 149 146 182 113 123 110 132 129 139 103 135 64 115 146 123 110 137 125 35 12 51 64 88 108 111 103 163 173 238 191 187 169 181 153
221 221 225 227 219 212 212 212 206 199 191 187 185 154 121 88 131 115 93 168 138 147 103 177 132 50 103 137 188 188 139 180 177 130 69 19 155 117 142 232 242 287 259 210 219 182 263
214 216 222 225 225 212 206 212 210 200 188 181 169 151 156 62 114 98 198 170 174 136 55 151 145 105 67 90 103 97 106 108 121 129 126 82 119 89 169 212 344 306 217 184 130 223 220
200 216 219 218 224 215 208 207 212 205 196 188 177 162 152 232 117 170 139 96 124 112 135 116 108 96 130 119 99 90 81 80 76 56 64 119 99 85 164 41 0 218 140 129 143 172 214
215 205 222 216 219 217 209 205 209 210 201 194 183 184 164 104 132 97 110 119 107 98 76 91 76 132 141 121 69 55 357 24 26 35 28 59 113 62 119 182 298 239 193 167 168 231 201
221 202 212 215 213 217 210 205 207 213 207 194 194 192 175 134 226 146 125 155 134 108 59 77 124 148 161 82 81 136 202 212 238 191 63 64 64 110 71 119 205 186 158 139 126 273 166
222 222 207 215 209 214 213 207 205 213 212 203 200 191 168 118 154 159 153 174 151 123 103 132 148 170 193 78 94 144 220 177 193 184 185 23 1 129 155 208 284 208 147 143 69 249 173
243 216 225 209 210 211 213 209 205 209 212 206 207 203 195 139 157 175 163 158 159 163 142 155 118 206 88 126 133 196 151 217 136 170 187 177 144 198 82 57 314 155 129 171 170 138 148
256 231 222 206 207 210 212 210 206 207 210 210 211 207 207 182 153 170 174 178 187 174 147 168 151 165 177 102 177 114 135 128 151 241 53 262 184 182 175 214 146 172 161 157 156 153 150